Weather in Kalacheevskiy

Russia / Voronezh Oblast     50°20′21″N   41°09′48″E
temp.,
°C
wind,
m/s
gust,
m/s
humid.,
%
clouds,
%
prec.,
mm/h
press.,
hPa
HPBL,
m
25 february, thu
thu2500:00−14ssw368395 0.0 1039292
03:00−14ssw498797 0.1 1036340
06:00−12ssw51088100 0.1 1034387
09:00−11ssw71189100 0.1 1032404
12:00−8sw71192100 0.2 1030477
15:00−5sw71293100 0.4 1027506
18:00−4sw71395100 0.3 1023406
21:00−2wsw71296100 0.8 1021340
26 february, fri
fri2600:000wsw61198100 0.3 1020294
03:00+1w51198100 0.7 1020306
06:00+1w51198100 0.2 1019305
09:00+2w4999100 0.4 1019213
12:00+2w510100100 0.0 1018267
15:00+2w51199100 0.0 1017271
18:00+3wsw61498100 0.0 1015374
21:00+2w61398100 0.1 1014409
27 february, sat
sat2700:00+2w61397100 0.2 1012389
03:00+2w61396100 0.3 1012426
06:00+1w51196100 0.0 1010398
09:00+1w61295100 0.0 1010494
12:00+2w61195100 0.1 1009617
15:00+1w61198100 0.1 1009598
18:00+1w61197100 0.1 1009542
21:00+1w61197100 0.1 1009502
28 february, sun
sun2800:000wnw5109898 0.1 1009482
03:000wnw5109799 0.4 1010529
06:00−1nw499797 0.1 1011392
09:00−2n578593 0.2 1013642
12:00−3nnw577687 0.0 1014643
15:00−3nnw587484 0.0 1016689
18:00−4n588199 0.0 1017657
21:00−4n5782100 0.1 1020695
1 march, mon
mon100:00−5n4685100 0.1 1021676
03:00−5n3586100 0.1 1023583
06:00−6nnw478898 0.0 1024613
09:00−6n5780100 0.1 1026671
12:00−5nnw567699 0.0 1028717
15:00−4nnw5773100 0.1 1028742
18:00−5nnw487997 0.0 1029704
21:00−5nw248979 0.0 1030186